Grand Forks, ND

12:09 AM CDT on May 01, 2017 (GMT -0500)
Grand Forks International

Weather History for KGFK - February, 2014

Change the Weather History Date:

Friday, February 14, 2014

  Actual Average Record
Temperature  
Mean Temperature -4 °F 12 °F  
Max Temperature 7 °F 22 °F 40 °F (2002)
Min Temperature -15 °F 2 °F -27 °F (1943)
Degree Days  
Heating Degree Days 69 53  
Month to date heating degree days 945 775  
Since 1 July heating degree days 7037 6441  
Cooling Degree Days 0 0  
Month to date cooling degree days 0 0  
Year to date cooling degree days 0 0  
Moisture  
Dew Point -11 °F    
Average Humidity 70    
Maximum Humidity 79    
Minimum Humidity 60    
Precipitation  
Precipitation 0.00 in 0.02 in 0.22 in (1998)
Month to date precipitation 0.29 0.21  
Year to date precipitation 0.98 0.76  
Snow  
Snow 0.00 in 0.20 in 2.20 in (1998)
Month to date snowfall 2.5 3.0  
Since 1 July snowfall 42.8 33.6  
Snow Depth 12.00 in    
Sea Level Pressure  
Sea Level Pressure 30.04 in    
Wind  
Wind Speed 9 mph (WNW)    
Max Wind Speed 20 mph    
Max Gust Speed 22 mph    
Visibility 10 miles    
Events      
T = Trace of Precipitation, MM = Missing Value Source: NWS Daily Summary

Daily Weather History Graph

Daily Weather History Graph

Search for Another Location

Airport or City:

Trip Planner

Search our weather history database for the weather conditions in past years. The results will help you decide how hot, cold, wet, or windy it might be!

Date:

Astronomy

Feb. 14, 2014 Rise Set
Actual Time 7:36 AM CST 5:49 PM CST
Civil Twilight 7:04 AM CST 6:21 PM CST
Nautical Twilight 6:28 AM CST 6:58 PM CST
Astronomical Twilight 5:52 AM CST 7:34 PM CST
Moon 5:58 PM CST (2/14) 7:01 AM CST (2/14)
Length of Visible Light 11h 17m
Length of Day
10h 13m
Full, 100% of the Moon is Illuminated
Feb 14
Full
Feb 14
Full
Feb 22
Last Quarter
Mar 1
New
Mar 8
First Quarter

Hourly Weather History & Observations

Time (CST) Temp. Windchill Dew Point Humidity Pressure Visibility Wind Dir Wind Speed Gust Speed Precip Events Conditions
12:53 AM -8.0 °F -27.1 °F -14.1 °F 75% 29.96 in 10.0 mi NNW 11.5 mph - N/A   Clear
1:53 AM -9.0 °F -28.4 °F -15.0 °F 75% 29.98 in 10.0 mi NNW 11.5 mph - N/A   Clear
2:53 AM -9.9 °F -27.5 °F -17.0 °F 71% 30.00 in 10.0 mi NNW 9.2 mph - N/A   Clear
3:53 AM -11.9 °F -28.7 °F -18.0 °F 74% 30.02 in 10.0 mi NNW 8.1 mph - N/A   Clear
4:53 AM -11.9 °F -28.7 °F -18.9 °F 71% 30.04 in 10.0 mi NNW 8.1 mph - N/A   Clear
5:53 AM -13.0 °F -31.3 °F -18.9 °F 75% 30.07 in 10.0 mi NNW 9.2 mph - N/A   Clear
6:53 AM -15.0 °F -27.4 °F -20.9 °F 75% 30.09 in 10.0 mi NW 4.6 mph - N/A   Scattered Clouds
7:53 AM -9.0 °F -29.3 °F -17.0 °F 68% 30.12 in 10.0 mi NNW 12.7 mph - N/A   Overcast
8:53 AM -8.0 °F -25.0 °F -16.1 °F 68% 30.14 in 10.0 mi NNW 9.2 mph - N/A   Overcast
9:53 AM -5.1 °F -20.4 °F -13.0 °F 69% 30.14 in 10.0 mi NNW 8.1 mph - N/A   Overcast
10:53 AM -2.0 °F -16.6 °F -11.0 °F 66% 30.14 in 10.0 mi NNW 8.1 mph - N/A   Scattered Clouds
11:53 AM 1.0 °F -6.7 °F -9.0 °F 63% 30.14 in 10.0 mi West 3.5 mph - N/A   Mostly Cloudy
12:53 PM 3.0 °F -6.4 °F -7.1 °F 63% 30.13 in 10.0 mi WNW 4.6 mph - N/A   Overcast
1:53 PM 5.0 °F - -7.1 °F 58% 30.11 in 10.0 mi Calm Calm - N/A   Mostly Cloudy
2:53 PM 5.0 °F - -6.0 °F 61% 30.08 in 10.0 mi Calm Calm - N/A   Mostly Cloudy
3:53 PM 6.1 °F -5.6 °F -2.9 °F 67% 30.07 in 10.0 mi South 6.9 mph - N/A   Scattered Clouds
4:53 PM 6.1 °F -6.8 °F -2.9 °F 67% 30.04 in 10.0 mi South 8.1 mph - N/A   Partly Cloudy
5:53 PM 3.9 °F -10.4 °F -4.0 °F 70% 30.03 in 10.0 mi SSE 9.2 mph - N/A   Clear
6:53 PM 1.9 °F -13.8 °F -5.1 °F 72% 30.02 in 10.0 mi SSE 10.4 mph - N/A   Partly Cloudy
7:53 PM -0.0 °F -16.3 °F -5.1 °F 79% 29.98 in 10.0 mi South 10.4 mph - N/A   Clear
8:53 PM -0.9 °F -19.9 °F -6.0 °F 79% 29.95 in 10.0 mi SSE 13.8 mph - N/A   Clear
9:53 PM -0.9 °F -21.2 °F -6.0 °F 79% 29.91 in 10.0 mi SSE 16.1 mph - N/A   Clear
10:53 PM -0.0 °F -18.7 °F -6.0 °F 76% 29.87 in 10.0 mi South 13.8 mph - N/A   Partly Cloudy
11:53 PM -0.0 °F -21.3 °F -5.1 °F 79% 29.84 in 10.0 mi South 18.4 mph - N/A   Clear